Portada
METAR-TAF:

METAR-TAF

Aeroports :

Mudgee, Austràlia

latitud: 32-33-45S, longitud: 149-36-40E, altitud: 471 m

Observació

L'informe es va fer fa 43 minuts, a les 23:00 UTC
Vent calma
Temperatura 21°C
Humitat 73%
Pressió 1016 hPa
Visibilitat 10 km o més

METAR: YMDG 192300Z AUTO 00000KT 9999 // NCD 21/16 Q1016

Hora: 10:43 (23:43 UTC)


TAF: manca

Observacions i pronòstics meteorològics de més de 4000 aeroports (METAR i TAF).

Les estacions disponibles són els punts grocs i vermells al mapa.

Posi el ratolí al punt desitjat per veure el nom de l'estació.

Feu clic per veure les observacions i els pronòstics meteorològics.

Per canviar el mapa: feu clic els botons verds amb una creu de color negre per apropar; al botó verd amb un guió per allunyar la imatge; o en les fletxes verdes per a mapes adjacents.


METAR-TAF: